Sigonella/Catani, Italy

7:30 AM CET on February 28, 2017 (GMT +0100)
Sigonella

Weather History for LICZ - January, 2013

Change the Weather History Date:

Saturday, January 5, 2013

  Actual Average Record
Temperature  
Mean Temperature 56 °F -  
Max Temperature 64 °F 60 °F 72 °F (2016)
Min Temperature 47 °F 41 °F 32 °F (2000)
Degree Days  
Heating Degree Days 10    
Growing Degree Days 6 (Base 50)    
Moisture  
Dew Point 45 °F    
Average Humidity 69    
Maximum Humidity 93    
Minimum Humidity 34    
Precipitation  
Precipitation 0.00 in 0.07 in - ()
Sea Level Pressure  
Sea Level Pressure 30.14 in    
Wind  
Wind Speed 10 mph ()    
Max Wind Speed 20 mph    
Max Gust Speed -    
Visibility 8.0 miles    
Events      
Averages and records for this station are not official NWS values.
T = Trace of Precipitation, MM = Missing Value Source: Averaged Metar Reports

Daily Weather History Graph

Daily Weather History Graph

Search for Another Location

Airport or City:

Trip Planner

Search our weather history database for the weather conditions in past years. The results will help you decide how hot, cold, wet, or windy it might be!

Date:

Astronomy

Jan. 05, 2013 Rise Set
Actual Time 7:15 AM CET 4:56 PM CET
Civil Twilight 6:46 AM CET 5:25 PM CET
Nautical Twilight 6:13 AM CET 5:58 PM CET
Astronomical Twilight 5:41 AM CET 6:29 PM CET
Moon 12:07 AM CET (1/5) 11:32 AM CET (1/5)
Length of Visible Light 10h 39m
Length of Day
9h 41m
Waning Gibbous, 47% of the Moon is Illuminated
Jan 5
Waning Gibbous
Jan 11
New
Jan 19
First Quarter
Jan 27
Full
Feb 3
Last Quarter

Hourly Weather History & Observations

Time (CET) Temp. Dew Point Humidity Pressure Visibility Wind Dir Wind Speed Gust Speed Precip Events Conditions
12:55 AM 50.0 °F 46.4 °F 87% 30.24 in 6.2 mi West 11.5 mph - N/A   Partly Cloudy
1:00 AM 49 °F 46 °F 87% 30.27 in 12 mi West 11.5 mph - -   Scattered Clouds
1:55 AM 48.2 °F 46.4 °F 93% 30.24 in 6.2 mi West 10.4 mph - N/A   Partly Cloudy
2:55 AM 48.2 °F 44.6 °F 87% 30.24 in - West 12.7 mph - N/A   Clear
3:55 AM 48.2 °F 44.6 °F 87% 30.24 in - West 6.9 mph - N/A   Clear
4:55 AM 48.2 °F 46.4 °F 93% 30.21 in - West 9.2 mph - N/A   Clear
5:55 AM 48.2 °F 42.8 °F 82% 30.18 in - West 11.5 mph - N/A   Clear
6:55 AM 50.0 °F 44.6 °F 82% 30.18 in - West 11.5 mph - N/A   Clear
7:00 AM 50 °F 44 °F 73% 30.21 in 16 mi West 11.5 mph - -  
7:55 AM 48.2 °F 46.4 °F 93% 30.18 in - West 11.5 mph - N/A   Clear
8:55 AM 55.4 °F 44.6 °F 67% 30.18 in - West 12.7 mph - N/A   Clear
9:55 AM 59.0 °F 44.6 °F 59% 30.18 in - WSW 13.8 mph - N/A   Clear
10:00 AM 59 °F 45 °F 50% 30.19 in 11 mi WSW 13.8 mph - -  
10:55 AM 62.6 °F 42.8 °F 48% 30.18 in - NW 19.6 mph - N/A   Clear
11:55 AM 62.6 °F 44.6 °F 52% 30.12 in - NW 12.7 mph - N/A   Clear
12:55 PM 62.6 °F 42.8 °F 48% 30.12 in - NW 15.0 mph - N/A   Clear
1:00 PM 63 °F 42 °F 34% 30.13 in 11 mi NW 15.0 mph - -   Mostly Cloudy
1:55 PM 62.6 °F 41.0 °F 45% 30.09 in 6.2 mi NW 15.0 mph - N/A   Scattered Clouds
2:55 PM 62.6 °F 42.8 °F 48% 30.06 in 6.2 mi West 16.1 mph - N/A   Scattered Clouds
3:55 PM 60.8 °F 44.6 °F 55% 30.06 in 6.2 mi WNW 13.8 mph - N/A   Scattered Clouds
4:00 PM 61 °F 45 °F 44% 30.09 in 9 mi WNW 13.8 mph - -   Partly Cloudy
4:55 PM 59.0 °F 42.8 °F 55% 30.06 in 6.2 mi NW 11.5 mph - N/A   Scattered Clouds
5:55 PM 55.4 °F 44.6 °F 67% 30.06 in 6.2 mi West 8.1 mph - N/A   Scattered Clouds
6:55 PM 53.6 °F 46.4 °F 77% 30.06 in 6.2 mi West 16.1 mph - N/A   Mostly Cloudy
7:00 PM 54 °F 46 °F 66% 30.09 in 9 mi West 16.1 mph - -   Partly Cloudy
7:55 PM 55.4 °F 44.6 °F 67% 30.06 in 6.2 mi WNW 11.5 mph - N/A   Mostly Cloudy
8:55 PM 51.8 °F 44.6 °F 76% 30.06 in 6.2 mi West 4.6 mph - N/A   Partly Cloudy
9:55 PM 51.8 °F 46.4 °F 82% 30.06 in - West 8.1 mph - N/A   Clear
10:00 PM 53 °F 46 °F 69% 30.08 in 6 mi West 8.1 mph - -  
10:55 PM 50.0 °F 44.6 °F 82% 30.06 in - West 2.3 mph - N/A   Clear
11:55 PM 50.0 °F 46.4 °F 87% 30.06 in - Calm Calm - N/A   Clear